This is the latest recevied weather packets stored in our database for station/object K5NWZ. If no packets are shown the sender has not sent any weather packets the latest 10 day(s).
| Time | Temp. | Humidity | Pressure | Rain* | Wind** | Luminosity | Snow |
|---|---|---|---|---|---|---|---|
| 1787511414 | 32.22° C | 32% | 1028.3 hPa | 0 mm | - | 751 W/m² | - |
| 1787511108 | 32.22° C | 32% | 1028.3 hPa | 0 mm | - | 735 W/m² | - |
| 1787510802 | 32.78° C | 33% | 1028.6 hPa | 0 mm | - | 722 W/m² | - |
| 1787510497 | 32.22° C | 33% | 1028.2 hPa | 0 mm | - | 718 W/m² | - |
| 1787510192 | 31.67° C | 33% | 1028.6 hPa | 0 mm | - | 718 W/m² | - |
| 1787509889 | 32.22° C | 33% | 1028.6 hPa | 0 mm | - | 717 W/m² | - |
| 1787509584 | 32.22° C | 32% | 1028.6 hPa | 0 mm | - | 715 W/m² | - |
| 1787509281 | 32.78° C | 32% | 1028.8 hPa | 0 mm | - | 711 W/m² | - |
| 1787508980 | 31.67° C | 33% | 1028.9 hPa | 0 mm | - | 707 W/m² | - |
| 1787508677 | 32.22° C | 33% | 1028.9 hPa | 0 mm | - | 698 W/m² | - |
| 1787508377 | 31.67° C | 34% | 1028.9 hPa | 0 mm | - | 690 W/m² | - |
| 1787508073 | 31.67° C | 35% | 1029.1 hPa | 0 mm | - | 687 W/m² | - |
| 1787507769 | 31.67° C | 35% | 1028.9 hPa | 0 mm | - | 680 W/m² | - |
| 1787507465 | 31.67° C | 38% | 1029 hPa | 0 mm | - | 674 W/m² | - |
| 1787507161 | 31.11° C | 36% | 1029.1 hPa | 0 mm | - | 673 W/m² | - |
| 1787506856 | 31.11° C | 39% | 1029 hPa | 0 mm | - | 668 W/m² | - |
| 1787506552 | 31.67° C | 36% | 1029.1 hPa | 0 mm | - | 661 W/m² | - |
| 1787506248 | 30.56° C | 39% | 1029 hPa | 0 mm | - | 657 W/m² | - |
| 1787505943 | 31.11° C | 36% | 1029.4 hPa | 0 mm | - | 655 W/m² | - |
| 1787505638 | 31.11° C | 38% | 1029.4 hPa | 0 mm | - | 656 W/m² | - |
| 1787505333 | 31.11° C | 36% | 1029.5 hPa | 0 mm | - | 648 W/m² | - |
| 1787505028 | 30.56° C | 36% | 1029.6 hPa | 0 mm | - | 645 W/m² | - |
| 1787504723 | 30.56° C | 38% | 1029.3 hPa | 0 mm | - | 643 W/m² | - |
| 1787504420 | 30° C | 38% | 1029.5 hPa | 0 mm | - | 640 W/m² | - |
| 1787504115 | 30° C | 39% | 1029.5 hPa | 0 mm | - | 652 W/m² | - |
* Rain latest hour (hover to see other rain measurements)
** Current wind speed in m/s (hover to see current wind gust speed)